Tracking 25703 objects as of 2-Jul-2022
HD Live streaming from Space Station
objects crossing your sky now

COSMOS 1761

Track COSMOS 1761 now!
COSMOS 1761 is classified as:


NORAD ID: 16849
Int'l Code: 1986-050A
Perigee: 5,001.6 km
Apogee: 35,326.7 km
Inclination: 69.7 °
Period: 717.0 minutes
Semi major axis: 26535 km
RCS: 12.1379 m2 (large)
Launch date: July 5, 1986
Source: Commonwealth of Independent States (former USSR) (CIS)
Launch site: PLESETSK MISSILE AND SPACE COMPLEX (PKMTR)
aabbcc
Your satellite tracking list
Your tracking list is empty




NASA's NSSDC Master Catalog

Two Line Element Set (TLE):
1 16849U 86050A   22183.43711178 -.00000221  00000-0  00000-0 0  9991
2 16849  69.7397 121.0426 5714147  42.0015  79.5103  2.00849382263594
Source of the keplerian elements: AFSPC